[[{"header":{"parameterUnit":"m.s-1","parameterCategory":1,"la1":30.2991,"la2":30.254,"lo1":-89.0895,"lo2":-89.0444,"dy":0.0017,"dx":0.0017,"nx":28,"ny":28,"refTime":"2026-01-03T03:00:00:Z","depth":0,"parameterNumber":2,"parameterNumberName":"U-component_of_WINDS"},"data":[0,0,0,0,0,0,0,0,0,0,0,0,0,0,0,0,0,0,0,0,0,0,0,0,0,0,0,0,0,0,0,0,0,0,0,0,0,0,0,0,0,0,0,0,0,0,0,0,0,0,0,0,0,0,0,0,0,0,-0.8991,-0.8992,0,-0.9085,-0.9086,-0.9088,-0.908,-0.9078,-0.9077,-0.9076,-0.9176,-0.918,-0.9184,0,0,0,0,0,0,0,0,0,0,0,0,0,-0.8808,-0.8811,-0.8991,-0.8992,-0.8994,-0.9085,-0.9087,-0.9088,-0.908,-0.9078,-0.9077,-0.9075,-0.9175,-0.918,-0.9185,0,0,0,0,0,0,0,0,0,0,0,0,0,-0.8893,-0.8812,-0.8991,-0.9001,-0.9002,-0.9085,-0.9087,-0.9088,-0.908,-0.9078,-0.9076,-0.9074,-0.9174,-0.9179,-0.9185,-0.9266,0,0,-0.9204,-0.9206,0,0,0,0,0,0,0,0,-0.8889,-0.89,-0.8998,-0.9,-0.9002,-0.9069,-0.9059,-0.9148,-0.9081,-0.9051,-0.9075,-0.9073,-0.9143,-0.9151,-0.9174,-0.9271,-0.9275,-0.9204,-0.9208,-0.9211,-0.9212,0,0,0,0,0,0,0,-0.8883,-0.8896,-0.9029,-0.9,-0.9002,-0.9001,-0.9011,-0.9076,-0.9108,-0.9053,-0.9053,-0.9064,-0.9143,-0.9168,-0.9176,-0.9276,-0.9204,-0.921,-0.9213,-0.9216,-0.9443,-0.9446,0,0,0,0,0,0,-0.8874,-0.8891,-0.9026,-0.9031,-0.8939,-0.9006,-0.9017,-0.905,-0.9107,-0.9114,-0.9066,-0.9063,-0.9158,-0.9169,-0.9179,-0.9277,-0.9211,-0.9216,-0.922,-0.9441,-0.9444,-0.9446,0,0,0,0,0,0,-0.887,-0.8886,-0.9022,-0.8961,-0.8978,-0.9012,-0.9048,-0.9053,-0.9077,-0.9116,-0.9122,-0.9085,-0.9157,-0.9171,-0.9244,-0.928,-0.9219,-0.9224,-0.9438,-0.9442,-0.9445,-0.9473,0,0,0,0,0,0,-0.8865,-0.8885,-0.8915,-0.8962,-0.8982,-0.9084,-0.905,-0.9056,-0.9087,-0.9084,-0.9136,-0.9142,-0.9157,-0.9235,-0.925,-0.9288,-0.9229,-0.9435,-0.944,-0.9444,-0.9469,-0.9477,-0.9484,0,0,0,0,0,-0.8858,-0.892,-0.8917,-0.8933,-0.902,-0.9086,-0.9098,-0.9112,-0.909,-0.9121,-0.9146,-0.9141,-0.9274,-0.9242,-0.9259,-0.9299,-0.9433,-0.9438,-0.9444,-0.9466,-0.9476,-0.9484,0,0,0,0,0,0,-0.8879,-0.8927,-0.8923,-0.9002,-0.904,-0.9085,-0.9125,-0.9122,-0.9168,-0.9164,-0.9181,-0.9192,-0.9266,-0.929,-0.9254,-0.938,-0.935,-0.936,-0.9362,-0.9371,-0.9379,-0.9372,-0.9234,0,0,0,0,0,-0.8892,-0.8941,-0.898,-0.9046,-0.9065,-0.9091,-0.9121,-0.9128,-0.9168,-0.9185,-0.9215,-0.9256,-0.9307,-0.934,-0.939,-0.9472,-0.9483,-0.9508,-0.9516,-0.9522,-0.953,-0.9575,-0.9586,-0.9464,-0.9464,-0.9464,0,0,-0.8921,-0.8953,-0.8983,-0.9051,-0.9081,-0.9132,-0.9105,-0.916,-0.9198,-0.9194,-0.9264,-0.9288,-0.9334,-0.9412,-0.9448,-0.9435,-0.9565,-0.9529,-0.9533,-0.9538,-0.9582,-0.9593,-0.9603,-0.9468,-0.9467,-0.9467,0,0,-0.9,-0.9028,-0.9086,-0.9116,-0.9161,-0.9178,-0.9192,-0.9237,-0.9252,-0.9322,-0.932,-0.9366,-0.9453,-0.9486,-0.9514,-0.9603,-0.96,-0.9619,-0.9659,-0.9702,-0.9712,-0.9721,-0.9753,-0.9764,-0.9626,-0.9626,-0.9626,0,-0.903,-0.9105,-0.9117,-0.9171,-0.9201,-0.9197,-0.9256,-0.9286,-0.9345,-0.9366,-0.935,-0.9458,-0.949,-0.9575,-0.9596,-0.9619,-0.9636,-0.9614,-0.9709,-0.9718,-0.9727,-0.9757,-0.9769,-0.9628,-0.9628,-0.9628,-0.9628,0,-0.9141,-0.9193,-0.9234,-0.9289,-0.9324,-0.9381,-0.9401,-0.9435,-0.9439,-0.9457,-0.9529,-0.9566,-0.9622,-0.9642,-0.9648,-0.9728,-0.9718,-0.9706,-0.9677,-0.974,-0.9769,-0.9781,-0.9631,-0.963,-0.963,-0.9629,0,0,-0.9237,-0.9296,-0.9311,-0.9336,-0.9384,-0.9426,-0.9482,-0.9535,-0.9564,-0.9604,-0.9653,-0.9726,-0.9713,-0.9745,-0.9754,-0.9792,-0.986,-0.9774,-0.9776,-0.9789,-0.9951,-0.9961,-0.9975,-0.9857,-0.986,-0.9861,-0.9948,0,-0.932,-0.9419,-0.943,-0.9518,-0.9566,-0.9562,-0.9611,-0.9647,-0.9666,-0.971,-0.9731,-0.9782,-0.9762,-0.9781,-0.9819,-0.9844,-0.9893,-0.9837,-0.9903,-0.9906,-0.9893,-0.999,-1.0001,-1.0081,-0.9959,-0.9961,-0.9962,0,-0.9432,-0.9473,-0.9566,-0.9607,-0.9627,-0.9671,-0.972,-0.9762,-0.9803,-0.9813,-0.9848,-0.9851,-0.991,-0.9877,-0.9959,-0.9921,-0.9948,-0.9964,-0.9968,-0.9975,-0.9939,-1.0001,-1.0106,-1.0118,-0.998,-0.9979,-0.9978,0,-0.9492,-0.9572,-0.9637,-0.9659,-0.9708,-0.9739,-0.9761,-0.9799,-0.983,-0.9873,-0.9893,-0.9943,-0.9971,-1.0009,-1.0026,-1.0001,-1.0107,-1.0076,-1.0118,-1.0118,-1.0142,-1.014,-1.0254,-1.0158,-1.0158,-1.0158,-1.0158,0,-0.9585,-0.9642,-0.9665,-0.9706,-0.9769,-0.9781,-0.9844,-0.9865,-0.9899,-0.9944,-0.9943,-0.9986,-1.0005,-1.005,-1.0064,-1.0129,-1.0142,-1.0153,-1.0156,-1.0154,-1.0152,-1.0173,-1.0168,-1.0161,-1.016,-1.016,-1.0159,0,-0.9665,-0.9682,-0.9753,-0.9793,-0.9805,-0.985,-0.9884,-0.9924,-0.9941,-0.9998,-1.0012,-1.004,-1.0093,-1.0113,-1.0179,-1.0188,-1.0264,-1.0262,-1.025,-1.0251,-1.0292,-1.0288,-1.0424,-1.0442,-1.0333,-1.0334,-1.0335,0,-0.9723,-0.9766,-0.981,-0.9839,-0.9862,-0.991,-0.994,-0.9954,-0.9986,-1.0034,-1.0068,-1.012,-1.0163,-1.0249,-1.0276,-1.0326,-1.0326,-1.037,-1.0333,-1.0329,-1.0327,-1.0324,-1.0329,-1.0377,-1.0378,-1.0379,-1.038,0,-0.9825,-0.9831,-0.9874,-0.9921,-0.9957,-0.9995,-1.0032,-1.0056,-1.0075,-1.0111,-1.0165,-1.0198,-1.0263,-1.0316,-1.0367,-1.0391,-1.0389,-1.039,-1.0403,-1.0401,-1.0392,-1.0398,-1.0269,-1.0388,-1.0387,-1.0386,-1.0386,-1.0385,-0.9896,-0.9934,-0.997,-1.0019,-1.0047,-1.0081,-1.0119,-1.014,-1.0185,-1.0238,-1.0244,-1.0302,-1.034,-1.0408,-1.0434,-1.048,-1.0468,-1.0486,-1.0491,-1.0496,-1.0499,-1.0384,-1.0489,-1.0489,-1.0489,-1.0489,-1.0488,0,-0.9998,-1.0021,-1.0065,-1.0115,-1.0153,-1.0145,-1.0185,-1.0218,-1.0268,-1.0303,-1.0345,-1.0406,-1.0457,-1.0486,-1.0537,-1.0568,-1.0569,-1.0581,-1.058,-1.0585,-1.0506,-1.049,-1.058,-1.058,-1.058,-1.058,-1.058,-1.058,-1.0056,-1.0119,-1.0129,-1.0207,-1.023,-1.0285,-1.0308,-1.034,-1.0368,-1.0436,-1.0477,-1.0495,-1.0528,-1.0581,-1.0627,-1.0635,-1.0654,-1.0668,-1.0674,-1.06,-1.0591,-1.0582,-1.0567,-1.0672,-1.0672,-1.075,-1.075,-1.0751]},{"header":{"parameterUnit":"m.s-1","parameterCategory":1,"la1":30.2991,"la2":30.254,"lo1":-89.0895,"lo2":-89.0444,"dy":0.0017,"dx":0.0017,"nx":28,"ny":28,"refTime":"2026-01-03T03:00:00:Z","depth":0,"parameterNumber":3,"parameterNumberName":"V-component_of_WINDS"},"data":[0,0,0,0,0,0,0,0,0,0,0,0,0,0,0,0,0,0,0,0,0,0,0,0,0,0,0,0,0,0,0,0,0,0,0,0,0,0,0,0,0,0,0,0,0,0,0,0,0,0,0,0,0,0,0,0,0,0,-4.6855,-4.6855,0,-4.6885,-4.6885,-4.6885,-4.6802,-4.68,-4.6797,-4.6795,-4.6823,-4.6826,-4.6829,0,0,0,0,0,0,0,0,0,0,0,0,0,-4.6725,-4.6728,-4.6855,-4.6856,-4.6856,-4.6885,-4.6885,-4.6885,-4.6803,-4.6799,-4.6796,-4.6793,-4.6822,-4.6826,-4.6829,0,0,0,0,0,0,0,0,0,0,0,0,0,-4.6771,-4.6729,-4.6855,-4.6818,-4.6815,-4.6885,-4.6885,-4.6886,-4.6803,-4.6799,-4.6795,-4.6792,-4.6821,-4.6825,-4.683,-4.6936,0,0,-4.6844,-4.6846,0,0,0,0,0,0,0,0,-4.6768,-4.6776,-4.6823,-4.6821,-4.6817,-4.6836,-4.6849,-4.6902,-4.6804,-4.6808,-4.6794,-4.679,-4.683,-4.6834,-4.6848,-4.6937,-4.6939,-4.6845,-4.6847,-4.685,-4.6851,0,0,0,0,0,0,0,-4.6765,-4.6774,-4.6867,-4.6824,-4.682,-4.6799,-4.6802,-4.6859,-4.684,-4.6807,-4.6801,-4.6806,-4.6828,-4.6843,-4.6848,-4.6939,-4.6845,-4.6849,-4.6852,-4.6853,-4.7118,-4.7122,0,0,0,0,0,0,-4.6767,-4.6772,-4.6866,-4.6868,-4.6783,-4.6805,-4.6807,-4.6834,-4.6839,-4.6836,-4.6809,-4.6802,-4.6837,-4.6842,-4.6848,-4.6974,-4.6849,-4.6854,-4.6857,-4.7114,-4.7119,-4.7123,0,0,0,0,0,0,-4.6765,-4.6776,-4.6865,-4.6818,-4.6828,-4.6811,-4.6842,-4.6836,-4.6852,-4.6841,-4.6837,-4.6829,-4.6834,-4.6842,-4.6915,-4.6974,-4.6856,-4.686,-4.7109,-4.7115,-4.7121,-4.7225,0,0,0,0,0,0,-4.6761,-4.6776,-4.6816,-4.682,-4.6831,-4.6932,-4.6845,-4.684,-4.6861,-4.6851,-4.6858,-4.6855,-4.6832,-4.6909,-4.692,-4.6978,-4.6864,-4.7103,-4.7112,-4.7119,-4.7217,-4.7235,-4.725,0,0,0,0,0,-4.6757,-4.6844,-4.6819,-4.6831,-4.6881,-4.6935,-4.6941,-4.6913,-4.6866,-4.6906,-4.6899,-4.6855,-4.6965,-4.6917,-4.6929,-4.6989,-4.71,-4.7109,-4.7118,-4.7209,-4.7231,-4.7249,0,0,0,0,0,0,-4.6847,-4.6844,-4.6816,-4.6907,-4.6922,-4.6921,-4.6971,-4.6937,-4.6965,-4.6955,-4.6918,-4.6921,-4.7001,-4.7002,-4.6948,-4.7093,-4.7024,-4.7037,-4.7089,-4.711,-4.7126,-4.7124,-4.6868,0,0,0,0,0,-4.6878,-4.6923,-4.6917,-4.6997,-4.7007,-4.6988,-4.701,-4.6988,-4.7001,-4.7007,-4.7005,-4.702,-4.7058,-4.7084,-4.7118,-4.7216,-4.7217,-4.7264,-4.728,-4.7294,-4.7305,-4.7358,-4.7379,-4.7154,-4.7154,-4.7154,0,0,-4.6941,-4.6945,-4.6975,-4.7016,-4.7025,-4.7072,-4.6994,-4.7046,-4.7081,-4.7015,-4.7085,-4.7084,-4.7098,-4.7185,-4.7223,-4.7188,-4.7367,-4.7306,-4.7317,-4.7321,-4.737,-4.7391,-4.741,-4.7161,-4.716,-4.7159,0,0,-4.708,-4.7088,-4.7156,-4.7167,-4.7183,-4.717,-4.7186,-4.7191,-4.7188,-4.7258,-4.721,-4.725,-4.7316,-4.7328,-4.7343,-4.7488,-4.745,-4.75,-4.7587,-4.7639,-4.7657,-4.7672,-4.7725,-4.7744,-4.7511,-4.7512,-4.7512,0,-4.7157,-4.7227,-4.7195,-4.7252,-4.7272,-4.7215,-4.7284,-4.7296,-4.7322,-4.7336,-4.7297,-4.738,-4.7385,-4.7474,-4.751,-4.7524,-4.7541,-4.75,-4.7657,-4.7672,-4.7686,-4.7736,-4.7756,-4.7518,-4.7517,-4.7517,-4.7516,0,-4.732,-4.737,-4.7423,-4.7451,-4.7476,-4.7538,-4.7516,-4.7546,-4.7521,-4.7512,-4.7584,-4.7588,-4.7623,-4.7642,-4.7618,-4.7729,-4.7707,-4.7663,-4.7594,-4.7714,-4.7761,-4.7779,-4.7527,-4.7525,-4.7523,-4.7521,0,0,-4.7517,-4.7528,-4.7548,-4.756,-4.7573,-4.761,-4.767,-4.7705,-4.7731,-4.7751,-4.7801,-4.7858,-4.7818,-4.7835,-4.7812,-4.7857,-4.7974,-4.7808,-4.7807,-4.7839,-4.8097,-4.813,-4.8153,-4.7948,-4.7951,-4.7954,-4.8096,0,-4.7656,-4.776,-4.7734,-4.7837,-4.7883,-4.783,-4.7882,-4.7896,-4.7889,-4.7926,-4.7918,-4.7961,-4.7904,-4.7914,-4.7957,-4.795,-4.8025,-4.794,-4.7994,-4.7996,-4.7993,-4.8177,-4.8212,-4.8346,-4.8113,-4.8116,-4.8119,0,-4.7831,-4.7859,-4.7967,-4.7974,-4.7992,-4.804,-4.807,-4.8106,-4.812,-4.8112,-4.8133,-4.81,-4.8159,-4.8089,-4.817,-4.8113,-4.8134,-4.8134,-4.8138,-4.8143,-4.8065,-4.8187,-4.8387,-4.8408,-4.8147,-4.8144,-4.8142,0,-4.7965,-4.8029,-4.8103,-4.8115,-4.8124,-4.8159,-4.8165,-4.8175,-4.8198,-4.8224,-4.8239,-4.8271,-4.8289,-4.8315,-4.8292,-4.8243,-4.8378,-4.8305,-4.8373,-4.8374,-4.8404,-4.8402,-4.8611,-4.8416,-4.8416,-4.8415,-4.8415,0,-4.8123,-4.8191,-4.8163,-4.8208,-4.8284,-4.8253,-4.8328,-4.8327,-4.8338,-4.8381,-4.8337,-4.8379,-4.8346,-4.8385,-4.8368,-4.8438,-4.8446,-4.8442,-4.8436,-4.8446,-4.8447,-4.8459,-4.845,-4.8421,-4.8419,-4.8418,-4.8418,0,-4.8285,-4.8269,-4.8346,-4.8349,-4.8352,-4.8407,-4.8409,-4.8451,-4.8442,-4.8498,-4.8509,-4.8494,-4.8538,-4.8518,-4.8564,-4.8552,-4.8643,-4.8624,-4.8639,-4.8634,-4.8703,-4.8697,-4.8928,-4.8957,-4.8742,-4.8744,-4.8746,0,-4.8387,-4.8439,-4.8448,-4.8475,-4.8484,-4.8527,-4.8551,-4.8523,-4.8549,-4.857,-4.861,-4.865,-4.8681,-4.8753,-4.8746,-4.8781,-4.8764,-4.8842,-4.8769,-4.8777,-4.8766,-4.8764,-4.8769,-4.8857,-4.886,-4.8862,-4.8863,0,-4.857,-4.856,-4.8596,-4.8631,-4.8661,-4.8686,-4.8707,-4.8731,-4.8704,-4.8736,-4.8781,-4.8805,-4.8852,-4.8893,-4.8923,-4.8928,-4.8892,-4.8887,-4.8904,-4.8915,-4.8922,-4.892,-4.868,-4.8882,-4.888,-4.8878,-4.8877,-4.8877,-4.8706,-4.875,-4.8764,-4.8806,-4.882,-4.8841,-4.8881,-4.8877,-4.8914,-4.8951,-4.8932,-4.8985,-4.8998,-4.9036,-4.9046,-4.9086,-4.9055,-4.908,-4.9087,-4.9094,-4.9104,-4.8915,-4.9091,-4.9091,-4.909,-4.909,-4.909,0,-4.8888,-4.8894,-4.8934,-4.8966,-4.8999,-4.8963,-4.8984,-4.9015,-4.9062,-4.9078,-4.911,-4.9162,-4.9201,-4.9198,-4.9234,-4.9267,-4.9251,-4.9278,-4.9275,-4.9277,-4.9129,-4.911,-4.929,-4.929,-4.929,-4.929,-4.929,-4.929,-4.8986,-4.9059,-4.9051,-4.913,-4.9136,-4.9188,-4.9204,-4.9223,-4.9236,-4.9297,-4.933,-4.9327,-4.9336,-4.9372,-4.9407,-4.9405,-4.9421,-4.9453,-4.9445,-4.9307,-4.9287,-4.9268,-4.9251,-4.9457,-4.9457,-4.959,-4.9591,-4.9592]}]]